Location: Unspecified
(0.0000°N, 0.0000°E)
Time: 03:00:50
(UTC+00:00)

Hubble Space Telescope - Pass Details

Date: 03 March 2021
Orbit: 536 x 539 km, 28.5° (Epoch: 24 February)

Event Time Altitude Azimuth Distance (km) Brightness Sun altitude
Exits shadow 03:51:41 15° 97° (E) 1,495 3.7 -34.8°
Drops below altitude 10° 03:52:29 10° 101° (ESE) 1,783 4.2 -34.6°
Sets 03:54:50 0° 109° (ESE) 2,675 5.4 -34.0°
